Cosmos 1184 Rocket - Orbit

View from above orbital plane
View from above orbital plane
View from above satellite
View from above satellite

Ground track
Ground track

The orbit data is extracted from the following two-line orbital elements,

1 11822U 80044B   13143.14561365  .00005139  00000-0  19889-3 0  5647
2 11822 081.2396 189.8338 0021741 063.9971 296.3499 15.25774109804549
Epoch (UTC): 23 May 2013 03:29:41
Eccentricity: 0.0021741
inclination: 81.2396°
perigee height: 473 km
apogee height: 503 km
right ascension of ascending node: 189.8338°
argument of perigee: 63.9971°
revolutions per day: 15.25774109
mean anomaly at epoch: 296.3499°
orbit number at epoch: 80454

The dashed part of the orbit path shows where the satellite is in the earth's shadow,  

Developed and maintained by Chris Peat, Heavens-Above GmbH. Please read the updated FAQ before sending e-mail. Imprint. DLR